Weather History for Delhi, ON

Change the Weather History Date:

Tuesday, April 9, 2013

  Actual Average Record
Temperature  
Mean Temperature 48 °F -  
Max Temperature 57 °F - - ()
Min Temperature 40 °F - - ()
Degree Days  
Heating Degree Days 16    
Moisture  
Dew Point 43 °F    
Average Humidity 84    
Maximum Humidity 94    
Minimum Humidity 51    
Precipitation  
Precipitation 0.71 in - - ()
Sea Level Pressure  
Sea Level Pressure 29.98 in    
Wind  
Wind Speed 8 mph ()    
Max Wind Speed 20 mph    
Max Gust Speed 28 mph    
T = Trace of Precipitation, MM = Missing Value Source: Averaged Metar Reports

Daily Weather History Graph

Daily Weather History Graph

Search for Another Location

Airport:

Trip Planner

Search our weather history database for the weather conditions in past years. The results will help you decide how hot, cold, wet, or windy it might be!

Date:

Astronomy

Apr. 09, 2013 Rise Set
Actual Time 6:50 AM EDT 7:57 PM EDT
Civil Twilight 6:21 AM EDT 8:27 PM EDT
Nautical Twilight 5:46 AM EDT 9:01 PM EDT
Astronomical Twilight 5:10 AM EDT 9:38 PM EDT
Moon 6:12 AM EDT (4/9) 7:32 PM EDT (4/9)
Length of Visible Light 14h 05m
Length of Day
13h 07m
Waning Crescent, 1% of the Moon is Illuminated
Apr 9
Waning Crescent
Apr 10
New
Apr 18
First Quarter
Apr 25
Full
May 2
Last Quarter

Hourly Weather History & Observations

Time (EDT) Temp. Windchill Dew Point Humidity Pressure Visibility Wind Dir Wind Speed Gust Speed Precip Events Conditions
12:00 AM 51.6 °F - 47.8 °F 87% 29.81 in - West 11.5 mph 21.9 mph N/A   Unknown
1:00 AM 48.7 °F - 45.3 °F 88% 29.86 in - WNW 12.7 mph 20.7 mph N/A   Unknown
2:00 AM 46 °F - 42 °F 82% 29.90 in - WNW 19.6 mph - -  
2:00 AM 46.0 °F 38.5 °F 42.3 °F 87% 29.90 in - WNW 19.6 mph 27.6 mph N/A   Unknown
3:00 AM 43.5 °F 37.1 °F 40.5 °F 89% 29.94 in - WNW 12.7 mph 23.0 mph N/A   Unknown
4:00 AM 41.7 °F 33.7 °F 39.0 °F 90% 29.98 in - NW 16.1 mph 25.3 mph N/A   Unknown
5:00 AM 40.6 °F 35.4 °F 38.3 °F 91% 30.03 in - NW 8.1 mph - N/A   Unknown
6:00 AM 40.5 °F 36.5 °F 38.1 °F 91% 30.06 in - NNW 5.8 mph - N/A   Unknown
7:00 AM 40.5 °F 36.5 °F 38.1 °F 91% 30.08 in - NNW 5.8 mph - N/A   Unknown
8:00 AM 41 °F - 38 °F 85% 30.11 in - NW 3.5 mph - -  
8:00 AM 40.6 °F 38.6 °F 38.1 °F 91% 30.11 in - NW 3.5 mph - N/A   Unknown
9:00 AM 41.2 °F 39.2 °F 38.7 °F 91% 30.11 in - SW 3.5 mph - N/A   Unknown
10:00 AM 42.1 °F 39.2 °F 39.0 °F 89% 30.10 in - South 4.6 mph - N/A   Unknown
11:00 AM 45.7 °F - 39.4 °F 79% 30.07 in - East 2.3 mph - N/A   Unknown
12:00 PM 49.6 °F - 41.5 °F 74% 30.06 in - SSE 5.8 mph - N/A   Unknown
1:00 PM 54.9 °F - 44.6 °F 68% 30.04 in - SSE 4.6 mph - N/A   Unknown
2:00 PM 56 °F - 43 °F 51% 30.04 in - South 6.9 mph - -  
2:00 PM 56.1 °F - 43.0 °F 61% 30.04 in - South 6.9 mph - N/A   Unknown
3:00 PM 53.8 °F - 42.1 °F 65% 29.99 in - Calm Calm - N/A   Unknown
4:00 PM 53.2 °F - 42.4 °F 67% 30.00 in - NNW 2.3 mph - N/A   Unknown
5:00 PM 51.3 °F - 45.1 °F 80% 29.92 in - Calm Calm - 0.02 in   Unknown
6:00 PM 48.9 °F - 45.1 °F 87% 29.94 in - North 8.1 mph - 0.02 in   Unknown
7:00 PM 48.4 °F - 46.2 °F 92% 29.87 in - NE 8.1 mph - 0.09 in   Unknown
8:00 PM 48 °F - 46 °F 91% 29.87 in - NNE 4.6 mph - -  
8:00 PM 48.0 °F - 46.2 °F 93% 29.87 in - NNE 4.6 mph - 0.40 in   Unknown
9:00 PM 48.6 °F - 46.9 °F 94% 29.90 in - ESE 3.5 mph - 0.37 in   Unknown
10:00 PM 48.7 °F - 47.1 °F 94% 29.93 in - North 3.5 mph - 0.11 in   Unknown
11:00 PM 48.2 °F - 46.6 °F 94% 29.92 in - NNE 2.3 mph - 0.13 in   Unknown